EHI
2 3 4 3 2 3 3 3 3 3 3 3 3 3 2 1 0 0 0 0 0 1 1 1 1 3 3 3 2 3 3 3 2 1 0 0 0 0 0 1 2 3 3
3 4 4 4 3 3 3 3 3 3 3 4 4 4 2 1 0 0 0 0 0 1 2 2 2 3 3 3 3 3 3 3 2 1 0 0 0 0 1 2 3 3 3
4 4 4 5 5 4 4 3 3 2 3 4 5 4 2 0 0 0 0 0 1 2 3 3 3 3 3 3 3 3 2 2 2 1 0 0 0 0 1 2 3 3 3
5 4 5 7 6 4 3 3 2 1 2 3 4 4 2 1 0 0 1 1 2 3 3 3 2 2 2 2 2 1 1 1 1 0 0 0 0 0 1 1 2 3 3
4 5 6 6 5 2 1 1 0 0 1 3 4 4 3 2 1 1 2 2 2 2 2 1 1 1 1 1 1 0 0 0 1 1 1 1 1 1 1 1 1 2 2
3 3 4 4 2 1 1 2 2 2 2 4 5 5 4 3 1 1 2 1 1 1 1 0 0 0 0 0 0 0 0 1 2 2 2 2 2 1 1 1 1 1 1
2 2 2 2 1 2 4 6 6 5 5 6 7 6 5 3 2 2 1 0 0 0 0 1 1 1 0 0 0 0 0 1 2 3 3 3 3 3 2 2 2 1 0
1 1 2 2 2 3 6 8 8 7 6 7 6 5 3 3 2 1 0 0 0 1 1 2 2 2 1 0 0 0 0 1 3 3 3 4 4 4 3 3 2 2 1
1 1 2 3 3 3 5 7 7 5 4 4 3 2 1 1 1 0 0 0 1 2 3 3 3 3 3 2 2 2 2 3 3 3 3 3 4 3 3 3 2 2 1
2 2 3 4 4 4 3 3 4 3 3 3 2 1 0 1 1 0 1 1 2 3 3 3 2 3 3 3 5 5 6 6 4 3 3 3 3 3 3 2 1 1 1
3 3 3 4 5 4 3 3 4 4 4 4 3 2 2 3 3 2 2 2 3 2 2 1 1 1 1 2 5 7 8 7 5 3 3 3 3 2 1 1 1 1 2
2 2 2 3 4 4 4 5 6 6 5 5 5 4 5 6 6 5 3 2 1 1 0 0 0 0 0 1 4 6 7 7 5 3 2 3 2 1 0 0 0 1 1
1 1 2 2 3 4 4 4 6 6 6 7 8 9 10 9 7 5 3 1 1 1 1 1 1 1 1 2 4 6 6 6 5 4 3 2 1 0 0 0 0 0 0
1 1 1 1 2 3 2 2 4 6 7 9 11 12 12 9 7 5 3 3 3 3 3 3 2 2 2 2 3 5 5 5 5 3 2 1 0 0 0 0 0 0 0
2 2 2 1 2 3 2 1 2 6 9 10 10 9 7 5 4 3 3 3 3 4 3 3 2 1 1 1 1 2 3 4 4 2 1 0 0 0 0 0 0 0 0
4 4 3 3 3 3 3 3 3 6 9 9 6 3 2 1 1 1 1 1 2 2 2 1 1 0 0 0 0 1 2 3 3 1 0 0 0 0 0 0 0 0 0
5 5 4 3 3 4 5 6 6 6 7 6 4 2 1 0 0 0 0 0 0 1 1 1 0 0 0 0 0 0 1 2 2 1 0 0 0 0 0 0 0 0 0
4 4 4 4 4 6 7 8 8 7 6 5 5 4 2 1 0 0 1 0 0 0 0 0 0 0 0 0 0 0 0 1 1 0 0 0 0 0 0 0 0 0 0
2 2 3 4 5 6 8 9 8 5 4 4 4 3 2 1 0 0 0 0 0 0 0 0 0 0 0 0 0 0 0 0 0 0 0 0 0 0 0 0 0 0 0
2 3 3 4 5 6 7 7 6 3 2 2 2 1 0 0 0 0 0 0 0 0 0 0 0 0 0 0 0 0 0 0 0 0 0 0 0 0 0 0 0 0 0
3 3 3 4 4 4 5 5 4 2 1 1 0 0 0 0 0 0 0 0 0 0 0 0 0 0 0 0 0 0 0 0 0 0 0 0 0 0 0 0 0 0 0
3 3 3 3 4 3 3 3 2 1 1 0 0 0 0 0 0 0 0 0 0 0 0 0 0 0 0 0 0 0 0 0 0 0 0 0 0 0 0 0 0 0 0
4 3 3 4 3 2 2 2 1 1 0 0 0 0 0 0 0 0 0 0 0 0 0 0 0 0 0 0 0 0 0 0 0 0 0 0 0 0 0 0 0 0 0
5 4 4 4 3 1 0 1 1 0 0 0 0 0 0 0 0 0 0 0 0 0 0 0 0 0 0 0 0 0 0 0 0 0 0 0 0 0 0 0 0 0 0
5 4 3 3 1 0 0 0 0 0 0 0 0 0 0 0 0 0 0 0 0 0 0 0 0 0 0 0 0 0 0 0 0 0 0 0 0 0 0 0 0 0 0
4 4 3 1 0 0 0 0 0 0 0 0 0 0 0 0 0 0 0 0 0 0 0 0 0 0 0 0 0 0 0 0 0 0 0 0 0 0 0 0 0 0 0
Wind_Speed
4 3 3 3 3 3 3 2 3 1 1 1 1 1 1 1 2 2 2 2 2 2 1 1 1 1 1 1 1 1 2 2 1 2 2 2 2 2 1 1 1 1 0
3 4 4 4 4 4 3 3 2 2 1 1 1 1 1 1 1 1 2 2 2 1 1 1 1 1 1 1 1 1 1 1 2 1 1 2 3 3 2 2 1 1 1
7 5 5 4 4 4 4 3 2 2 1 2 2 2 2 2 2 2 2 2 2 2 1 1 1 1 1 0 0 1 1 1 1 1 1 1 1 1 2 2 2 2 1
6 6 6 5 5 5 4 3 2 2 2 2 3 3 2 1 0 0 1 2 2 2 2 1 1 1 1 1 0 1 1 1 1 1 1 0 1 1 1 2 2 2 1
7 7 7 7 5 5 4 3 3 2 2 2 2 3 2 1 0 1 2 2 2 2 2 2 1 1 1 1 1 1 1 1 1 1 0 1 1 1 1 1 2 2 2
5 6 5 5 4 3 4 4 4 2 2 2 2 2 3 1 1 1 1 1 2 2 3 2 2 1 1 0 0 1 1 1 1 1 1 1 1 1 1 1 1 1 2
5 5 5 6 5 4 4 4 4 3 2 2 2 2 2 2 2 1 0 0 1 1 2 2 1 1 1 0 1 1 1 1 1 1 0 1 1 1 1 1 1 1 1
5 5 6 6 6 5 5 4 4 3 3 3 2 1 1 1 1 0 0 0 1 1 1 1 1 2 1 1 1 1 1 1 1 0 0 1 0 1 1 1 2 0 1
4 4 4 5 6 6 5 5 5 4 3 3 2 1 1 1 0 1 0 0 1 1 1 2 2 2 2 1 1 1 0 1 1 0 0 0 0 0 1 1 2 2 1
4 4 4 4 5 5 4 4 4 4 3 3 2 2 1 0 0 1 1 1 1 1 1 1 1 2 2 1 1 1 0 1 0 0 1 0 0 0 0 1 1 1 2
5 5 4 3 4 4 4 4 4 4 3 3 2 2 1 1 0 0 1 1 1 1 1 1 1 1 2 1 1 1 0 0 1 1 0 0 0 0 0 0 0 1 1
5 4 4 3 4 4 4 4 4 4 3 3 3 2 2 2 1 1 1 1 1 1 1 1 1 1 1 1 1 1 1 1 1 1 0 1 0 0 0 0 0 0 1
4 4 4 4 4 4 4 3 3 4 4 4 3 2 2 2 1 0 1 1 1 1 1 1 1 1 1 1 1 1 1 1 2 1 1 1 0 0 0 0 0 0 0
5 5 4 3 3 4 4 4 3 3 4 4 3 3 2 1 1 0 1 1 1 1 1 1 1 1 1 1 1 1 2 2 2 2 1 1 1 1 1 1 1 0 0
5 6 5 4 4 4 4 4 4 3 3 4 3 2 2 2 2 1 1 1 2 2 2 2 2 2 2 2 2 1 1 2 2 2 2 1 0 0 1 1 1 1 1
7 7 6 5 5 5 5 4 4 4 4 4 3 2 2 2 2 1 1 2 2 2 2 2 2 3 3 5 4 1 1 1 1 2 2 2 2 2 1 1 2 2 2
8 7 7 6 6 5 6 6 5 4 4 4 3 3 3 2 1 1 2 2 2 2 2 3 3 3 4 6 5 5 2 1 1 2 2 2 3 3 2 2 1 1 1
7 7 6 6 5 5 5 5 5 5 5 4 3 2 2 2 1 2 1 1 1 2 2 2 3 3 4 7 6 5 3 2 2 2 2 2 3 3 3 2 2 2 2
6 6 6 6 5 5 6 6 5 5 4 4 3 2 2 2 2 1 1 1 1 2 2 2 2 3 4 7 6 5 2 3 3 3 3 3 3 5 5 2 2 3 3
5 6 6 6 6 5 6 7 6 5 4 4 3 2 2 3 2 1 1 1 1 1 2 2 2 2 3 6 6 4 2 3 3 3 4 5 5 5 4 2 2 3 4
5 6 7 6 6 6 7 7 5 4 4 3 3 3 2 2 2 2 1 1 1 2 2 2 2 2 3 5 6 5 2 2 2 3 3 4 6 6 5 3 2 3 3
6 7 7 5 5 6 7 6 5 3 3 4 4 3 2 2 2 2 2 2 2 2 2 2 3 3 3 4 5 5 4 3 1 2 3 4 6 6 6 4 4 4 2
6 6 7 6 4 4 6 7 5 4 5 5 4 2 2 2 2 2 2 2 1 1 1 1 1 2 3 3 5 5 5 4 2 2 4 5 6 5 4 6 6 4 3
5 6 7 6 4 4 4 5 5 5 6 5 3 3 2 2 2 1 2 2 1 1 0 0 1 2 2 3 3 3 3 3 3 3 4 4 5 4 4 5 4 3 2
3 5 6 6 5 4 4 4 5 6 5 4 3 2 2 2 1 1 1 1 1 2 2 1 1 1 2 4 3 1 2 2 2 2 2 3 4 4 4 4 4 3 3
4 4 4 5 5 5 4 4 4 6 6 4 3 2 2 2 2 1 1 1 0 1 1 1 1 1 2 4 3 3 3 3 3 2 2 2 3 3 3 4 4 3 3
Wind_Direction
206 159 145 142 129 114 115 125 115 94 92 93 88 73 47 31 25 21 27 33 40 59 79 61 44 50 62 55 53 81 70 57 60 67 39 21 25 25 10 359 18 2 324
184 164 155 152 147 150 150 146 141 135 121 131 120 105 91 49 20 355 12 17 25 30 79 93 73 56 62 50 54 76 78 47 49 82 71 8 2 11 14 15 42 19 31
191 182 170 165 159 162 165 162 158 147 132 115 94 81 60 38 25 12 4 8 14 19 30 54 74 77 103 88 56 85 110 82 36 50 115 128 248 318 349 10 20 19 34
188 183 177 174 179 183 170 159 153 133 124 126 122 122 122 125 246 350 344 1 16 19 32 48 66 69 73 75 24 86 104 118 100 34 36 103 162 174 326 345 359 7 21
189 190 189 184 184 179 169 161 146 130 123 115 129 132 130 157 49 36 28 12 10 15 20 29 45 55 52 30 39 77 96 114 135 132 113 90 65 116 168 291 331 352 354
189 187 185 177 179 171 166 158 148 148 142 138 144 148 150 142 82 47 29 355 352 1 9 20 26 34 37 15 30 90 112 115 123 119 122 148 163 181 170 212 285 320 326
180 177 175 179 182 176 176 165 153 154 153 155 162 167 160 149 156 173 165 347 348 344 340 356 4 4 353 12 70 81 75 106 120 137 144 165 187 171 159 166 216 295 310
183 184 188 186 183 180 175 164 159 162 159 163 170 143 130 138 167 205 205 240 263 293 325 350 359 6 18 35 64 71 57 85 107 95 134 159 150 134 161 167 161 187 338
185 184 187 188 182 180 182 174 166 172 165 159 142 114 113 126 105 358 7 314 299 320 15 17 9 10 21 27 60 72 54 80 83 249 150 123 69 144 185 179 177 168 215
184 188 185 185 181 178 173 163 162 170 158 142 154 143 124 98 10 24 349 341 341 355 20 14 359 2 10 25 65 65 34 91 242 199 103 60 293 97 140 174 178 177 182
190 194 189 179 163 153 153 152 148 144 145 150 147 132 109 108 123 7 297 303 352 10 12 344 352 1 9 16 49 11 17 20 324 339 92 278 242 126 51 99 137 154 161
179 170 166 156 146 147 146 150 151 149 152 148 139 141 131 115 104 52 331 355 12 0 347 346 0 354 9 12 11 323 337 322 305 300 293 291 339 61 25 98 165 186 197
161 155 151 152 153 149 143 145 147 153 146 139 136 127 117 118 117 81 1 29 33 13 2 19 10 347 346 349 325 300 305 295 280 273 248 257 165 239 235 201 213 249 177
157 154 151 154 152 143 144 147 143 146 143 137 136 136 133 141 146 92 70 47 61 54 24 10 350 326 325 332 322 318 308 303 298 299 284 254 200 216 199 193 216 208 158
161 166 166 165 157 150 149 152 149 136 130 128 127 135 122 107 92 73 55 48 53 49 33 24 10 357 355 357 349 323 325 325 337 344 328 306 270 186 190 195 203 178 186
184 175 169 164 165 165 161 155 145 133 128 130 137 128 108 96 90 79 65 61 50 44 44 30 22 19 16 14 18 16 339 347 355 339 330 327 327 315 302 248 211 186 191
187 179 177 175 174 171 162 157 153 138 130 133 131 123 123 122 110 95 74 61 53 52 47 31 29 22 10 18 22 30 36 22 2 346 337 338 347 350 331 318 309 277 235
182 180 173 167 167 158 153 148 142 140 138 139 141 141 141 134 101 82 71 52 54 56 52 35 25 20 11 17 19 29 37 28 10 359 350 341 339 348 351 329 323 306 293
179 168 160 154 150 149 148 140 139 141 142 149 152 149 147 136 117 103 79 67 63 48 42 44 34 26 4 12 17 28 26 25 10 2 2 359 348 349 359 353 325 318 311
146 141 136 130 135 139 138 139 144 144 153 160 151 140 141 139 134 131 113 86 93 75 59 46 33 23 5 8 23 32 37 23 2 356 357 2 355 345 349 331 312 309 309
131 130 131 135 142 140 136 137 141 157 165 146 129 123 131 139 129 116 99 96 86 69 56 39 14 8 1 2 18 30 40 16 353 351 348 346 354 352 345 333 302 294 303
128 132 133 133 135 141 139 139 154 160 138 130 126 125 122 123 116 114 93 79 82 73 51 25 360 353 353 0 2 18 30 26 11 330 328 331 344 347 347 350 348 339 339
138 137 135 130 127 142 147 151 164 144 134 130 132 129 115 109 113 124 114 88 83 84 50 23 341 332 342 348 357 1 4 8 7 328 335 339 346 350 356 6 5 4 2
137 137 135 137 140 147 152 153 146 138 137 140 142 135 128 112 91 111 131 132 130 117 62 340 318 320 331 340 344 345 349 357 356 345 345 354 3 10 3 3 9 8 1
136 142 147 151 155 150 147 143 142 138 136 136 133 130 134 134 119 116 155 168 185 178 178 226 251 294 310 306 309 330 339 335 332 349 8 16 13 11 7 2 360 359 0
135 137 144 149 150 146 144 147 145 139 135 134 141 149 148 144 143 141 81 37 72 24 177 189 194 252 272 308 327 333 335 344 7 45 22 4 359 355 352 350 348 348 348